Regional Weather Roundup
Issued by NWS

Home | Current Version | Previous Version | Graphics & Text | Print | Product List | Glossary On
Versions: 1 2 3 4 5 6 7 8 9 10 11 12 13 14 15 16 17 18 19 20 21 22 23 24 25 26 27 28 29 30 31 32 33 34 35 36 37 38 39 40 41 42 43 44 45 46 47 48 49 50
000
ASUS43 KOAX 262010
RWRNE

WEATHER ROUNDUP FOR NEBRASKA
NATIONAL WEATHER SERVICE OMAHA NE
300 PM CDT TUE JUL 26 2016

NOTES: SATELLITE DATA IS BEING USED TO AUGMENT CLOUD COVER ABOVE
       12000 FEET.
       "FAIR" INDICATES FEW OR NO CLOUDS BELOW 12,000 FEET WITH NO
       SIGNIFICANT WEATHER AND/OR OBSTRUCTIONS TO VISIBILITY.

  * THESE STATIONS DO NOT REPORT WEATHER SUCH AS RAIN...SNOW OR FOG.

NEZ001>004-019>022-054>056-262100-
NEBRASKA PANHANDLE

CITY           SKY/WX    TMP DP  RH WIND       PRES   REMARKS
SCOTTSBLUFF    SUNNY     91  53  27 VRB3      30.02F
ALLIANCE       SUNNY     92  59  33 S15       30.00F HX  91
CHADRON        SUNNY     91  58  32 VRB3      29.97F HX  90
KIMBALL        CLOUDY    91  45  20 N5        30.10F
SIDNEY         CLOUDY    95  54  25 S10G18    30.06F HX  93
$$

NEZ057>060-069>072-079>082-262100-
SOUTHWEST NEBRASKA

CITY           SKY/WX    TMP DP  RH WIND       PRES   REMARKS
NORTH PLATTE   SUNNY     87  68  52 SE9       30.02F HX  90
IMPERIAL       SUNNY     91  60  35 S15G22    30.02F HX  90
LEXINGTON      SUNNY     85  65  51 SE8       30.05S
MCCOOK         SUNNY     90  65  43 S15G22    30.02F HX  92
OGALLALA       SUNNY     91  63  38 S10       30.02F HX  91
$$

NEZ005>010-023>029-035>040-094-262100-
NORTH CENTRAL NEBRASKA

CITY           SKY/WX    TMP DP  RH WIND       PRES   REMARKS
VALENTINE      SUNNY     92  61  35 S14       29.98F HX  92
AINSWORTH      SUNNY     89  63  40 SE9       29.99F HX  90
BROKEN BOW     SUNNY     85  65  51 SE10      30.06S
O`NEILL        SUNNY     89  56  32 S14       30.02F
ORD            SUNNY     85  63  47 S10       30.03F
THEDFORD       SUNNY     89  66  46 SE10G20   30.03F HX  92
$$

NEZ041-046>049-061>064-073>077-083>087-262100-
SOUTH CENTRAL NEBRASKA

CITY           SKY/WX    TMP DP  RH WIND       PRES   REMARKS
GRAND ISLAND   SUNNY     86  65  49 SE10      30.05F
AURORA         SUNNY     85  66  51 S8        30.05S
HASTINGS       SUNNY     88  63  43 S13       30.05F
HEBRON         SUNNY     88  62  41 SE12      30.03F
HOLDREGE       SUNNY     84  64  50 SE9G17    30.05  THUNDER
KEARNEY *      SUNNY     88  66  48 SE12      30.05F HX  90
YORK           SUNNY     84  66  54 SE7       30.05S
$$

NEZ011>018-030>034-042>045-262100-
NORTHEAST NEBRASKA

CITY           SKY/WX    TMP DP  RH WIND       PRES   REMARKS
NORFOLK        SUNNY     85  64  49 SE7       30.04F
ALBION         SUNNY     84  66  54 S9        30.05F
BLAIR          SUNNY     85  65  51 E9        30.05F
FREMONT        SUNNY     85  65  51 SE6       30.05F
TEKAMAH        SUNNY     87  63  44 S9        30.04F
WAYNE          SUNNY     84  70  62 S8        30.05S
$$

NEZ050>053-065>068-078-088>093-262100-
SOUTHEAST NEBRASKA

CITY           SKY/WX    TMP DP  RH WIND       PRES   REMARKS
LINCOLN        SUNNY     88  64  44 E6        30.04F
OMAHA EPPLEY   PTSUNNY   86  64  47 VRB6      30.04F
BEATRICE       SUNNY     88  63  42 E10       30.03F
FALLS CITY     SUNNY     86  68  54 CALM      30.02F
NEBRASKA CITY  SUNNY     84  64  50 SE8       30.04F
PLATTSMOUTH    SUNNY     84  64  49 E5        30.04F
$$

NEZ044-045-051>053-067-262100-
OMAHA AREA

CITY           SKY/WX    TMP DP  RH WIND       PRES   REMARKS
OMAHA EPPLEY   PTSUNNY   86  64  47 VRB6      30.04F
BLAIR          SUNNY     85  65  51 E9        30.05F
FREMONT        SUNNY     85  65  51 SE6       30.05F
MILLARD        SUNNY     85  65  50 SE5       30.03F
OFFUTT AFB     SUNNY     85  64  48 SE10      30.04F
PLATTSMOUTH    SUNNY     84  64  49 E5        30.04F
WAHOO          FAIR      85  64  49 SE8       30.04F
$$



USA.gov is the U.S. government's official web portal to all federal, state and local government web resources and services.